Regional Weather Roundup
Issued by NWS

Home | Current Version | Previous Version | Graphics & Text | Print | Product List | Glossary Off
Versions: 1 2 3 4 5 6 7 8 9 10 11 12 13 14 15 16 17 18 19 20 21 22 23 24 25 26 27 28 29 30 31 32 33 34 35 36 37 38 39 40 41 42 43 44 45 46 47 48 49 50

000
ASUS43 KDMX 281807
RWRIA

WEATHER ROUNDUP FOR IOWA
NATIONAL WEATHER SERVICE DES MOINES IA
100 PM CDT FRI AUG 28 2015

NOTE: "FAIR" INDICATES FEW OR NO CLOUDS BELOW 12,000 FEET WITH NO
SIGNIFICANT WEATHER AND/OR OBSTRUCTIONS TO VISIBILITY.

* - THESE STATIONS ARE NOT NWS STATIONS...THUS NOT UNDER NWS
QUALITY CONTROL.  THEY ALSO DO NOT REPORT WEATHER SUCH
AS PRECIPITATION OR FOG.

IAZ001>003-012>014-020>022-031>034-043>046-281900-
   NORTHWEST IOWA

CITY           SKY/WX    TMP DP  RH WIND       PRES   REMARKS
CARROLL *      PTSUNNY   68  68 100 S12       29.85F FOG
CHEROKEE *     CLOUDY    65  65 100 E10G16    29.86S FOG
DENISON *      CLOUDY    70  68  94 S9        29.82F
LE MARS *      CLOUDY    66  64  94 NE14      29.87S FOG
ORANGE CITY *  CLOUDY    64  63  94 E13G21    29.89S
SHELDON *      PTSUNNY   64  63  94 E17G29    29.90S FOG
SIOUX CITY     CLOUDY    70  64  81 N12       29.84S
6HR MIN TEMP:  66; 6HR MAX TEMP:  71; 6HR PCP:  0.04;

SPENCER        CLOUDY    63  59  87 E16G28    29.92S FOG
6HR MIN TEMP:  63; 6HR MAX TEMP:  65; 6HR PCP:  0.41;

STORM LAKE *   FOG       64  64 100 E9G16     29.86F VSB 3/4
$$

IAZ055>058-069>071-079>083-090>094-281900-
   SOUTHWEST IOWA

CITY           SKY/WX    TMP DP  RH WIND       PRES   REMARKS
ATLANTIC *     CLOUDY    73  68  83 S10       29.86F
AUDUBON *      CLOUDY    70  66  88 S9        29.86F
CLARINDA *     CLOUDY    77  68  73 S13G23    29.89S
COUNCIL BLFS * CLOUDY    73  70  88 SW9       29.85F
CRESTON *      CLOUDY    73  68  83 S17G25    29.91F
HARLAN  *      CLOUDY    72 -36   1 S10       29.88F HAZE
LAMONI         PTSUNNY   77  67  71 S16G23    29.93F
6HR MIN TEMP:  65; 6HR MAX TEMP:  77;

RED OAK *      CLOUDY    75  70  83 S14G20    29.86F
SHENANDOAH *   CLOUDY    79  70  73 S13G20    29.86F HX  81
$$

IAZ047>049-059>061-072>074-084-281900-
   CENTRAL IOWA

CITY           SKY/WX    TMP DP  RH WIND       PRES   REMARKS
AMES           CLOUDY    64  64 100 SE20G28   29.89F
6HR MIN TEMP:  62; 6HR MAX TEMP:  64; 6HR PCP:  1.02;

ANKENY *       CLOUDY    66  64  94 SE10G18   29.90F
CHARITON *     MOSUNNY   73  64  73 S14G22    29.93F
DES MOINES     CLOUDY    68  64  87 SE15      29.90F
6HR MIN TEMP:  64; 6HR MAX TEMP:  68; 6HR PCP:  0.18;

GRINNELL*      CLOUDY    66  61  82 SE17G26   29.95F
KNOXVILLE *    CLOUDY    70  63  78 SE9G21    29.93F
MARSHALLTOWN   LGT RAIN  63  60  90 SE9       29.95S
6HR MIN TEMP:  61; 6HR MAX TEMP:  63; 6HR PCP:  0.48;

PELLA *        CLOUDY    67  67 100 SE12G18   29.96F
PERRY *        CLOUDY    68  66  94 S14G20    29.87F
$$

IAZ004>006-015-016-023>025-035-036-281900-
   NORTH CENTRAL IOWA

CITY           SKY/WX    TMP DP  RH WIND       PRES   REMARKS
ALGONA *       PTSUNNY   61  59  94 E16       29.95S FOG
CLARION *      CLOUDY    59  57  94 SE21G30   29.93F FOG
ESTHERVILLE    LGT RAIN  61  60  97 E18G30    29.95F FOG
6HR MIN TEMP:  62; 6HR MAX TEMP:  63; 6HR PCP:  0.39;

FORT DODGE *   CLOUDY    63  57  82 SE12G22   29.91S
MASON CITY     LGT RAIN  60  59  96 E7        30.02F
6HR MIN TEMP:  60; 6HR MAX TEMP:  63; 6HR PCP:  1.09;

FOREST CITY *  DRIZZLE   59  59 100 E13G20    30.00S
IOWA FALLS *   MIX PCPN  61  59  94 SE20G32   29.96R
$$

IAZ007>011-017>019-026>030-037>042-050>054-066-281900-
   NORTHEAST IOWA

CITY           SKY/WX    TMP DP  RH WIND       PRES   REMARKS
CEDAR RAPIDS   LGT RAIN  63  63 100 SE12      30.03F
6HR MIN TEMP:  59; 6HR MAX TEMP:  63; 6HR PCP:  0.07;

CHARLES CITY * LGT RAIN  61  59  94 SE16G23   29.99R
CLINTON *      CLOUDY    66  61  82 SE5       30.13S
DECORAH *      LGT RAIN  59  57  94 SE17G24   30.02F
DUBUQUE        LGT RAIN  64  60  87 E5        30.11S
6HR MIN TEMP:  60; 6HR MAX TEMP:  64; 6HR PCP:  0.01;

MONTICELLO *   SUNNY     63  61  94 SE7       30.07F
OELWEIN *      LGT RAIN  61  61 100 E16G22    30.01F
WATERLOO       TSTM      62  60  93 SE17G26   29.97F FOG
6HR MIN TEMP:  61; 6HR MAX TEMP:  62; 6HR PCP:  0.77;

$$

IAZ064-065-067-068-078-281900-
   EAST CENTRAL IOWA

CITY           SKY/WX    TMP DP  RH WIND       PRES   REMARKS
DAVENPORT      CLOUDY    67  61  81 SE6       30.10S
6HR MIN TEMP:  58; 6HR MAX TEMP:  67;

IOWA CITY      CLOUDY    66  62  87 SE10      30.05F
6HR MIN TEMP:  60; 6HR MAX TEMP:  67; 6HR PCP:  0.02;

MT. PLEASANT * CLOUDY    70  58  66 SE12      30.05F
MUSCATINE *    SUNNY     70  61  73 E8        30.06F
QUAD CITIES    CLOUDY    68  61  78 SE5       30.09F
6HR MIN TEMP:  59; 6HR MAX TEMP:  69;

$$

IAZ062-063-075>077-085>089-095>099-281900-
   SOUTHEAST IOWA

CITY           SKY/WX    TMP DP  RH WIND       PRES   REMARKS
BURLINGTON     CLOUDY    69  62  78 SE9       30.07S
6HR MIN TEMP:  60; 6HR MAX TEMP:  69;

FAIRFIELD *    MOSUNNY   68  61  77 SE12G20   30.02F
FORT MADISON * SUNNY     66  63  88 SE9       30.06F
KEOKUK *       SUNNY     70  63  78 SE9       30.05F
OSKALOOSA *      N/A     71  62  73 SE14G25   29.98F
CENTERVILLE *  SUNNY     72  64  78 S17G24    29.98F
OTTUMWA        CLOUDY    70  63  78 SE15G25   29.96F
6HR MIN TEMP:  60; 6HR MAX TEMP:  70; 6HR PCP:  0.06;

WASHINGTON *     N/A    N/A N/A N/A MISG        N/A
$$

ABBREVIATIONS USED IN REMARKS
   TC - TEMPERATURES IN CELSIUS
  WCI - WIND CHILL INDEX
   HX - HEAT INDEX
  VSB - VISIBILITY
$$




USA.gov is the U.S. government's official web portal to all federal, state and local government web resources and services.